Location: Calimesa Mobile Home Ranch
(33.9736°N, 117.0370°W)
Time: 01:53:22
(UTC+00:00)

Hubble Space Telescope - Visible Passes

Search period start: 14 July 2024 00:00
Search period end: 24 July 2024 00:00
Orbit: 510 x 513 km, 28.5° (Epoch: 13 July)

Date Brightness Start Highest point End Pass type
(mag) Time Alt. Az. Time Alt. Az. Time Alt. Az.
14 Jul 1.7 03:40:46 10° SW 03:44:11 28° SSE 03:47:16 12° ESE visible
14 Jul 2.7 05:20:45 10° WSW 05:22:03 19° WSW 05:22:03 19° WSW visible
15 Jul 1.7 03:21:18 10° SW 03:24:48 30° S 03:28:18 10° ESE visible
15 Jul 1.9 05:01:22 10° WSW 05:03:52 29° SW 05:03:52 29° SW visible
16 Jul 1.4 04:41:59 10° WSW 04:45:32 35° S 04:45:32 35° S visible
17 Jul 1.4 04:22:36 10° WSW 04:26:14 34° S 04:27:08 30° SSE visible
18 Jul 1.5 04:03:12 10° WSW 04:06:48 33° S 04:08:41 22° SE visible
19 Jul 1.7 03:43:49 10° WSW 03:47:23 32° S 03:50:11 14° SE visible
20 Jul 1.8 03:24:24 10° WSW 03:27:55 30° S 03:31:26 10° SE visible
20 Jul 3.2 05:05:51 10° SW 05:06:27 12° SW 05:06:27 12° SW visible
21 Jul 3.0 04:46:45 10° SW 04:47:56 12° SSW 04:47:56 12° SSW visible
22 Jul 3.0 04:27:50 10° SW 04:29:00 11° SSW 04:29:26 11° SSW visible
